Flag for Morocco Weather past 2 weeks in Tangier, Morocco

Now
73 °F

Passing clouds.


Feels Like: 74 °F
Forecast: 67 / 82 °F
Wind: 5 mph from Southwest

Location: Tanger Aerodrome

Current Time: Aug 4, 2015 at 12:42:51 AM

Latest Report: Aug 4, 2015 at 12:00 AM


Visibility: 5 mi

Pressure: 30.07 "Hg

Humidity: 78%

Dew point: 66 °F

Location of TangierLocation

Historic Weather in Tangier — Graph

°F

Tangier temperature yesterday

Maximum temperature yesterday: 81 °F (at 1:00 PM)
Minimum temperature yesterday: 73 °F (at 2:30 AM)
Average temperature yesterday: 76 °F

Past Weeks' High & Low Weather Summary

 TemperatureHumidityPressure
High93 °F (Jul 21, 4:00 PM)89% (Jul 29, 8:00 AM)30.07 "Hg (Jul 29, 8:00 AM)
Low64 °F (Jul 20, 4:30 AM)26% (Jul 26, 5:00 PM)29.80 "Hg (Jul 31, 5:30 AM)
Average77 °F66%29.94 "Hg
* Reported Jul 19 11:00 PM — Aug 3 11:30 PM, Tangier, Weather by CustomWeather, © 2015

Note: Actual official high and low records may vary slightly from our data, if they occured in-between our weather recording intervals... More about our weather records

Advertising

Tangier weather history for previous 24 hours

 ConditionsComfort  
Time TempWeatherWind HumidityBarometerVisibility
11:30 PM
Mon, Aug 3
73 °FPassing clouds.6 mph78%30.07 "Hg5 mi
11:00 PM73 °FPassing clouds.7 mph78%30.07 "Hg5 mi
10:30 PM73 °FPassing clouds.9 mph78%30.07 "Hg5 mi
10:00 PM73 °FPassing clouds.7 mph78%30.07 "Hg5 mi
9:30 PM73 °FPassing clouds.7 mph78%30.04 "HgN/A
9:00 PM73 °FPassing clouds.8 mph78%30.04 "Hg5 mi
8:30 PM73 °FPassing clouds.7 mph78%30.04 "Hg5 mi
8:00 PM73 °FScattered clouds.9 mph78%30.01 "Hg5 mi
7:30 PM75 °FScattered clouds.10 mph74%30.01 "Hg5 mi
7:00 PM77 °FScattered clouds.9 mph69%30.01 "Hg5 mi
6:30 PM77 °FScattered clouds.9 mph69%30.01 "Hg5 mi
6:00 PM77 °FScattered clouds.9 mph69%30.01 "Hg5 mi
5:30 PM79 °FScattered clouds.10 mph65%30.01 "Hg5 mi
5:00 PM79 °FScattered clouds.10 mph65%30.01 "Hg5 mi
4:30 PM79 °FScattered clouds.10 mph65%30.01 "Hg5 mi
4:00 PM79 °FScattered clouds.13 mph65%30.01 "Hg5 mi
3:30 PM79 °FScattered clouds.13 mph70%30.01 "Hg5 mi
3:00 PM81 °FScattered clouds.13 mph66%30.01 "Hg5 mi
2:30 PM79 °FScattered clouds.14 mph70%30.01 "Hg5 mi
2:00 PM81 °FScattered clouds.13 mph66%30.01 "Hg5 mi
1:30 PM81 °FOvercast.14 mph66%30.04 "Hg5 mi
1:00 PM81 °FOvercast.13 mph66%30.04 "Hg5 mi
12:30 PM79 °FOvercast.14 mph70%30.04 "Hg1 mi
12:00 PM79 °FOvercast.12 mph74%30.04 "Hg1 mi
11:30 AM77 °FOvercast.13 mph74%30.04 "Hg1 mi
11:00 AM79 °FOvercast.12 mph65%30.01 "Hg1 mi
10:30 AM79 °FOvercast.12 mph65%30.01 "Hg4 mi
10:00 AM77 °FOvercast.9 mph74%30.01 "Hg4 mi
9:30 AM77 °FOvercast.7 mph69%29.98 "Hg4 mi
9:00 AM77 °FOvercast.6 mph74%29.98 "Hg4 mi
8:30 AM77 °FOvercast.7 mph69%29.98 "Hg4 mi
8:00 AM75 °FOvercast.3 mph78%29.98 "Hg4 mi
7:30 AM75 °FOvercast.5 mph78%29.98 "Hg4 mi
7:00 AM75 °FOvercast.5 mph78%29.98 "Hg4 mi
6:30 AM75 °FOvercast.7 mph78%29.98 "Hg4 mi
6:00 AM75 °FPassing clouds.8 mph78%29.95 "Hg4 mi
5:30 AM75 °FPassing clouds.5 mph78%29.95 "Hg4 mi
5:00 AM75 °FPassing clouds.No wind83%29.95 "Hg4 mi
4:30 AM73 °FPassing clouds.3 mph89%29.95 "Hg4 mi
4:00 AM75 °FPassing clouds.3 mph78%29.95 "HgN/A
3:30 AM73 °FClear.3 mph83%29.95 "Hg10 mi
3:00 AM73 °FClear.5 mph83%29.95 "Hg10 mi
2:30 AM73 °FClear.8 mph83%29.95 "Hg10 mi
2:00 AM75 °FClear.No wind78%29.95 "Hg10 mi
1:30 AM77 °FClear.No wind74%29.95 "Hg10 mi
1:00 AM77 °FClear.7 mph74%29.95 "Hg10 mi
12:30 AM77 °FPassing clouds.8 mph74%29.98 "HgN/A
12:00 AM77 °FPassing clouds.9 mph79%29.98 "HgN/A
Weather by CustomWeather, © 2015

See weather overviewHow to use our weather pages